{"data":{"norad_id":68175,"epoch":"2026-09-19T00:31:15.731040Z","epoch_age_seconds":183801,"freshness":"STALE","line1":"1 68175U 26050J   26262.02170985  .00011766  00000+0  35875-3 0  9991","line2":"2 68175  53.1577  84.4454 0001371  92.5808 267.5352 15.34406481 30346","mean_motion":15.34406481,"eccentricity":0.0001371,"inclination_deg":53.1577,"raan_deg":84.4454,"arg_perigee_deg":92.5808,"mean_anomaly_deg":267.5352,"bstar":0.00035875,"rev_number":3034,"period_min":93.84736168877,"perigee_km":461.7461008211,"apogee_km":463.62185393309,"semimajor_km":6840.8209773771,"source":"CELESTRAK","updated_at":"2026-09-20T09:00:43.800116Z"}}